User: anonymous   Login
Location: Bagnara
(41.0500°N, 14.7833°E)
Time: 00:23:10
(UTC+00:00)
Language:

Cosmos 2084 Rocket - Orbit

View from above orbital plane
View from above orbital plane
View from above satellite
View from above satellite

Ground track
Ground track

The orbit data is extracted from the following two-line orbital elements,

1 20666U 90055D   21263.34475073  .00000012  00000-0  19132-4 0  9999
2 20666  62.7860 347.6357 0109485  45.2236 315.7698 14.92559771693934
Epoch (UTC): 20 September 2021 08:16:26
Eccentricity: 0.0109485
inclination: 62.7860°
perigee height: 513 km
apogee height: 666 km
right ascension of ascending node: 347.6357°
argument of perigee: 45.2236°
revolutions per day: 14.92559771
mean anomaly at epoch: 315.7698°
orbit number at epoch: 69393

The dashed part of the orbit path shows where the satellite is in the earth's shadow,  

DLR